FW5468 Weather Reports


Display with metric or nautical units.
time (UTC)temp
F
wind
direction
speed
MPH
gust
MPH
rain 1hr
in
rain 24hr
in
rain mn
in
humidity
%
barometer
mb
20190921213225 91 142 2.0 9.0 0.00 0.00 0.00 43 1018.5
20190921211535 93 243 3.0 8.0 0.00 0.00 0.00 37 1018.5
20190921210214 93 235 1.0 5.0 0.00 0.00 0.00 37 1018.6
20190921204623 92 155 2.0 9.0 0.00 0.00 0.00 41 1018.6
20190921203214 94 142 2.0 10.0 0.00 0.00 0.00 38 1018.7
20190921201552 93 113 1.0 8.0 0.00 0.00 0.00 42 1018.9
20190921200302 92 212 2.0 9.0 0.00 0.00 0.00 40 1019.1
20190921194519 92 101 5.0 10.0 0.00 0.00 0.00 42 1019.2
20190921193257 92 216 3.0 8.0 0.00 0.00 0.00 39 1019.5
20190921191526 92 158 2.0 5.0 0.00 0.00 0.00 40 1019.7
20190921190128 91 181 2.0 8.0 0.00 0.00 0.00 41 1019.9
20190921184508 90 211 2.0 11.0 0.00 0.00 0.00 39 1020.1
20190921183128 91 123 3.0 10.0 0.00 0.00 0.00 45 1020.4
20190921180105 89 199 2.0 14.0 0.00 0.00 0.00 48 1020.8
20190921174823 88 215 2.0 7.0 0.00 0.00 0.00 45 1020.9
20190921173110 89 179 1.0 8.0 0.00 0.00 0.00 45 1021.1
20190921170114 88 187 4.0 10.0 0.00 0.00 0.00 43 1021.4
20190921163129 86 168 5.0 11.0 0.00 0.00 0.00 48 1021.8
20190921160059 84 189 3.0 9.0 0.00 0.00 0.00 49 1022.1
20190921154503 82 199 2.0 10.0 0.00 0.00 0.00 51 1022.4
20190921153202 81 221 1.0 6.0 0.00 0.00 0.00 53 1022.4
20190921150209 78 121 2.0 7.0 0.00 0.00 0.00 61 1022.5
20190921143154 76 166 2.0 6.0 0.00 0.00 0.00 65 1022.8
20190921140046 73 200 3.0 9.0 0.00 0.00 0.00 67 1022.5
20190921134654 71 233 1.0 7.0 0.00 0.00 0.00 73 1022.4
20190921133004 70 147 2.0 5.0 0.00 0.00 0.00 81 1022.4
20190921131600 68 226 1.0 3.0 0.00 0.00 0.00 83 1022.5
20190921124559 66 141 1.0 6.0 0.00 0.00 0.00 90 1022.2
20190921123005 65 133 1.0 4.0 0.00 0.00 0.00 92 1022.0
20190921121627 64 158 3.0 7.0 0.00 0.00 0.00 93 1021.9
20190921120018 64 156 2.0 7.0 0.00 0.00 0.00 93 1021.5
20190921114635 64 144 1.0 4.0 0.00 0.00 0.00 93 1021.4
20190921113054 64 139 0.0 0.0 0.00 0.00 0.00 92 1021.3
20190921110101 65 148 0.0 2.0 0.00 0.00 0.00 92 1021.1
20190921104805 65 132 1.0 4.0 0.00 0.00 0.00 92 1020.9
20190921103020 65 143 1.0 3.0 0.00 0.00 0.00 92 1020.8
20190921101729 65 146 0.0 3.0 0.00 0.00 0.00 92 1020.6
20190921100022 66 171 0.0 1.0 0.00 0.00 0.00 91 1020.6
20190921094627 66 135 0.0 2.0 0.00 0.00 0.00 91 1020.4
20190921093007 66 126 1.0 2.0 0.00 0.00 0.00 91 1020.2
20190921091627 66 137 0.0 3.0 0.00 0.00 0.00 91 1020.2
20190921084614 67 135 1.0 3.0 0.00 0.00 0.00 91 1020.2
20190921081527 67 125 0.0 0.0 0.00 0.00 0.00 90 1020.2
20190921073121 68 147 0.0 0.0 0.00 0.00 0.00 88 1020.1
20190921070033 69 146 0.0 0.0 0.00 0.00 0.00 87 1020.2
20190921064713 69 146 0.0 0.0 0.00 0.00 0.00 87 1020.0
20190921063135 69 141 0.0 2.0 0.00 0.00 0.00 87 1020.1
20190921060118 70 154 0.0 4.0 0.00 0.00 0.00 86 1020.0
20190921054739 70 129 1.0 3.0 0.00 0.00 0.00 86 1020.0
20190921053045 71 141 1.0 2.0 0.00 0.00 0.00 85 1020.0
20190921051641 71 140 0.0 2.0 0.00 0.00 0.00 85 1019.7
20190921050023 72 140 1.0 2.0 0.00 0.00 0.00 84 1020.0
20190921044811 73 188 0.0 2.0 0.00 0.00 0.00 82 1020.0
20190921043113 73 218 0.0 1.0 0.00 0.00 0.00 80 1020.0
20190921040119 74 217 0.0 2.0 0.00 0.00 0.00 78 1019.9
20190921034610 74 218 0.0 3.0 0.00 0.00 0.00 77 1020.0
20190921033513 74 140 0.0 1.0 0.00 0.00 0.00 76 1019.9
20190921031547 75 139 0.0 1.0 0.00 0.00 0.00 77 1019.9
20190921024723 76 140 0.0 1.0 0.00 0.00 0.00 75 1019.7
20190921021614 76 148 1.0 2.0 0.00 0.00 0.00 74 1019.7
20190921020013 77 135 1.0 3.0 0.00 0.00 0.00 72 1019.7
20190921014621 77 149 1.0 3.0 0.00 0.00 0.00 70 1019.6
20190921013108 77 159 0.0 2.0 0.00 0.00 0.00 71 1019.5
20190921010123 78 152 0.0 3.0 0.00 0.00 0.00 70 1019.2
20190921004612 79 145 1.0 3.0 0.00 0.00 0.00 68 1018.9
20190921003207 79 168 0.0 2.0 0.00 0.00 0.00 67 1018.7
20190921001503 80 167 0.0 1.0 0.00 0.00 0.00 65 1018.6
20190921000217 81 167 0.0 2.0 0.00 0.00 0.00 63 1018.7
20190920234610 82 168 0.0 2.0 0.00 0.00 0.00 62 1018.8
20190920231538 84 170 0.0 3.0 0.00 0.00 0.00 57 1018.8
20190920224618 85 216 2.0 7.0 0.00 0.00 0.00 54 1018.5
20190920221552 87 191 0.0 7.0 0.00 0.00 0.00 52 1018.3
20190920214538 91 172 3.0 14.0 0.00 0.00 0.00 47 1018.4